Wind_Speed
3 4 4 5 5 5 4 5 6 7 10 9 8 11 12 13 11 9 8 9 9 8 10 9 9 9 10 10 9 8 7 7 7
5 4 5 6 5 5 4 5 9 10 9 10 13 13 14 15 13 12 11 10 10 10 11 10 10 10 10 10 9 8 8 7 7
6 7 7 7 7 6 6 7 7 8 9 10 12 13 12 16 15 15 14 13 13 13 11 14 12 12 12 12 11 10 9 9 9
5 8 9 9 8 8 9 10 11 11 10 10 11 13 13 16 17 17 17 15 15 16 14 16 16 15 14 14 14 12 12 11 11
8 10 11 11 10 8 8 11 12 12 12 13 13 14 16 17 18 19 20 19 19 19 20 16 19 19 18 17 16 16 16 15 14
8 8 10 10 10 10 9 9 12 13 13 14 15 15 17 19 20 21 21 22 23 22 22 22 21 22 23 21 21 20 20 19 19
9 9 10 10 11 11 12 12 13 14 15 15 15 16 18 19 20 22 22 24 26 27 27 26 25 24 25 26 25 24 24 23 23
9 10 10 11 12 12 13 14 15 16 17 17 18 18 18 19 21 22 22 25 27 29 31 31 30 28 28 29 29 28 28 28 27
10 11 12 13 13 15 16 17 18 19 20 21 22 22 22 22 23 24 22 24 27 30 32 33 34 34 32 31 32 34 33 33 32
12 13 14 15 16 17 18 20 21 23 23 24 26 26 27 27 28 29 28 26 27 29 32 35 36 37 36 36 36 37 38 40 37
14 15 16 16 17 18 20 23 24 26 27 28 29 29 30 31 32 33 33 32 31 32 33 35 37 39 39 39 40 40 39 43 43
16 17 17 18 20 21 23 25 27 29 30 32 31 32 33 34 33 34 35 36 36 35 36 38 39 40 41 41 41 44 44 45 46
19 21 21 23 24 25 26 27 29 30 31 32 33 34 34 34 35 35 36 36 36 37 37 37 40 42 44 44 44 45 46 47 49
21 22 23 24 26 26 26 28 30 31 32 34 34 35 36 37 37 38 37 36 35 35 36 34 33 36 40 45 47 48 49 50 50
20 21 21 21 23 24 25 27 27 29 31 33 34 35 36 37 38 37 36 35 35 34 34 36 37 35 33 35 37 44 51 53 53
12 13 14 17 19 21 22 24 25 27 28 30 33 31 36 26 29 30 27 30 34 40 37 38 38 37 37 37 34 37 38 38 44
12 13 15 16 18 19 21 23 25 26 25 23 29 22 29 25 21 35 37 39 36 39 38 38 41 40 43 40 38 38 39 40 39
13 15 16 18 20 21 23 24 25 27 27 23 18 17 20 36 33 31 32 31 32 38 37 37 39 38 40 40 39 37 38 41 43
16 18 21 23 25 26 27 28 28 29 30 30 25 27 30 24 32 23 27 32 27 32 36 36 37 40 43 40 39 39 39 36 41
23 25 27 28 28 28 28 28 28 27 28 26 26 27 26 23 26 38 30 36 30 30 33 35 32 32 33 40 38 36 36 37 38
Wind_Direction
248 326 325 323 298 286 278 230 263 235 240 254 261 281 279 269 255 256 259 244 247 256 257 259 259 264 269 272 270 267 263 252 238
274 315 332 327 308 298 283 265 260 261 271 255 256 258 276 271 256 255 258 255 254 261 264 267 266 269 272 273 271 267 259 249 240
252 300 324 328 320 304 310 314 298 291 286 279 273 277 266 276 263 256 260 259 255 260 253 271 267 268 270 270 270 265 262 257 249
267 285 311 315 315 296 302 303 306 307 303 296 292 286 278 271 272 261 261 263 257 258 257 264 267 266 266 266 266 265 262 258 252
285 291 296 301 300 296 273 279 291 296 294 301 299 293 286 277 274 268 263 262 261 260 259 251 267 265 262 263 263 262 261 259 255
299 302 297 293 296 297 301 295 289 294 297 311 303 294 287 283 277 272 268 264 262 262 261 260 253 261 264 260 261 260 259 257 256
304 312 314 315 314 315 318 317 314 314 313 315 313 306 299 291 284 276 272 267 265 263 262 262 260 257 258 263 259 258 258 256 254
310 313 315 315 316 315 315 315 315 314 315 316 313 311 308 304 297 288 281 273 269 266 264 262 262 262 258 257 261 257 256 256 255
317 316 315 317 318 319 318 316 315 311 310 308 306 305 304 303 300 298 292 284 277 272 269 267 264 263 259 256 256 263 264 259 255
314 317 318 320 322 321 317 312 309 305 304 301 300 300 300 297 295 292 289 285 281 277 274 270 268 265 261 258 255 255 261 266 267
316 317 317 320 320 318 313 312 310 308 305 303 304 303 301 299 295 292 289 285 282 279 276 274 271 269 266 260 258 256 256 260 263
313 312 312 313 312 310 308 308 306 304 303 303 302 302 301 298 295 292 289 286 283 278 276 275 274 272 269 265 261 259 257 253 258
303 304 306 307 306 306 308 310 308 306 303 301 300 298 297 297 295 293 290 288 288 288 284 279 276 273 271 269 264 262 260 258 254
299 300 300 300 302 305 304 302 301 300 301 301 300 298 297 294 291 288 289 290 290 291 290 288 285 277 270 267 265 263 263 262 260
301 302 302 304 308 311 312 311 309 308 307 304 299 296 295 295 295 294 292 291 289 290 290 289 289 285 280 275 273 268 263 261 261
331 328 324 320 319 321 321 318 317 317 321 318 314 309 309 310 307 310 302 295 292 294 290 292 291 287 289 283 281 274 271 270 268
341 339 337 333 329 326 325 326 324 322 325 321 318 311 306 306 302 301 294 300 299 297 293 295 293 290 293 288 289 282 274 273 270
350 342 336 333 330 329 329 328 329 326 324 322 313 314 304 310 304 298 296 300 298 300 297 295 295 297 298 296 295 288 281 277 274
349 344 339 336 334 331 331 328 326 324 323 319 313 302 302 309 309 299 291 293 289 287 290 296 295 297 293 294 293 292 291 288 281
347 343 341 339 337 335 333 331 329 326 324 323 320 316 312 312 307 309 305 300 298 290 290 293 292 291 293 295 294 296 295 289 287
Height
1516 1516 1516 1516 1516 1516 1516 1516 1516 1517 1517 1518 1519 1518 1517 1516 1517 1517 1518 1517 1517 1517 1518 1517 1517 1517 1516 1516 1515 1514 1514 1513 1513
1516 1516 1516 1515 1515 1515 1515 1515 1515 1515 1516 1516 1516 1517 1516 1515 1515 1515 1516 1516 1516 1516 1516 1515 1515 1515 1515 1514 1514 1513 1512 1512 1511
1516 1515 1515 1515 1514 1514 1515 1515 1514 1514 1514 1513 1514 1513 1513 1512 1512 1512 1513 1513 1513 1514 1515 1513 1513 1513 1513 1512 1512 1511 1511 1510 1510
1515 1515 1514 1514 1514 1514 1515 1514 1513 1512 1512 1511 1511 1510 1510 1509 1509 1509 1509 1510 1510 1511 1511 1512 1511 1510 1510 1510 1509 1509 1508 1508 1507
1514 1514 1514 1513 1513 1513 1512 1512 1512 1511 1510 1509 1508 1508 1507 1506 1505 1505 1505 1506 1507 1507 1507 1508 1508 1507 1506 1506 1505 1505 1505 1505 1505
1513 1513 1512 1512 1511 1511 1510 1509 1509 1509 1508 1507 1505 1504 1504 1503 1502 1501 1501 1502 1502 1502 1502 1502 1503 1503 1502 1501 1501 1501 1501 1501 1501
1511 1512 1511 1511 1510 1510 1509 1508 1507 1507 1505 1504 1503 1502 1500 1499 1498 1496 1497 1496 1496 1496 1496 1496 1497 1497 1498 1497 1496 1496 1496 1496 1496
1510 1510 1510 1510 1509 1508 1507 1506 1505 1504 1503 1501 1500 1499 1497 1496 1494 1492 1491 1491 1490 1489 1489 1489 1490 1490 1491 1491 1490 1490 1490 1490 1490
1509 1509 1509 1508 1508 1507 1505 1504 1502 1501 1499 1497 1496 1494 1493 1491 1489 1487 1486 1485 1484 1483 1482 1482 1482 1482 1482 1483 1483 1483 1482 1482 1482
1507 1507 1507 1506 1505 1504 1502 1500 1498 1497 1495 1493 1491 1489 1487 1486 1483 1480 1479 1479 1477 1476 1475 1474 1474 1473 1473 1474 1475 1475 1475 1474 1474
1505 1505 1504 1503 1502 1500 1498 1496 1494 1491 1489 1487 1485 1483 1481 1479 1476 1474 1471 1470 1470 1469 1467 1466 1465 1465 1464 1465 1465 1465 1466 1465 1465
1503 1502 1501 1500 1498 1496 1493 1491 1488 1486 1483 1480 1478 1476 1474 1472 1469 1466 1464 1461 1460 1460 1459 1457 1456 1455 1454 1454 1454 1454 1454 1455 1455
1499 1498 1497 1495 1493 1491 1489 1487 1483 1480 1477 1474 1472 1468 1466 1464 1461 1458 1455 1453 1451 1448 1448 1448 1446 1444 1443 1443 1442 1442 1442 1442 1443
1496 1494 1493 1490 1488 1486 1483 1480 1477 1473 1469 1465 1462 1459 1457 1455 1452 1449 1446 1444 1442 1440 1438 1436 1435 1433 1432 1431 1430 1429 1429 1429 1429
1492 1490 1488 1486 1484 1481 1478 1474 1471 1468 1463 1459 1455 1452 1449 1445 1442 1439 1437 1435 1433 1431 1429 1427 1424 1423 1422 1421 1419 1417 1416 1417 1416
1489 1487 1486 1483 1481 1478 1474 1470 1467 1464 1459 1453 1448 1443 1439 1437 1435 1432 1429 1427 1425 1422 1419 1416 1414 1412 1410 1409 1409 1407 1406 1404 1403
1487 1485 1483 1481 1478 1475 1472 1467 1463 1460 1457 1452 1446 1436 1434 1432 1429 1427 1424 1420 1417 1413 1411 1408 1405 1402 1400 1398 1397 1396 1396 1394 1392
1486 1484 1481 1478 1475 1471 1467 1463 1459 1454 1452 1450 1448 1437 1429 1424 1422 1419 1417 1413 1409 1406 1402 1399 1396 1393 1390 1387 1385 1384 1383 1382 1381
1484 1482 1479 1475 1471 1467 1463 1460 1456 1451 1447 1444 1444 1440 1434 1424 1406 1411 1409 1407 1403 1398 1394 1391 1386 1383 1380 1378 1375 1373 1372 1370 1368
1481 1478 1474 1471 1467 1463 1460 1456 1452 1448 1444 1440 1435 1432 1428 1425 1418 1396 1398 1396 1395 1391 1387 1383 1379 1375 1371 1367 1364 1363 1359 1357 1355